Flag for Ukraine Weather past 2 weeks in Kryvyi Rih, Ukraine

Now
91 °F

Scattered clouds.


Feels Like: 90 °F
Forecast: 64 / 92 °F
Wind: 6 mph from Northeast

Location: Krivyy Rih / Dnipropetrovs'k

Current Time: Jul 30, 2014 at 5:09:22 PM

Latest Report: Jul 30, 2014 at 4:30 PM


Visibility: N/A

Pressure: 29.92 "Hg

Humidity: 32%

Dew point: 57 °F

Location of Kryvyi RihLocation

Historic Weather in Kryvyi Rih — Graph

°F

Kryvyi Rih temperature yesterday

Maximum temperature yesterday: 88 °F (at 2:00 PM)
Minimum temperature yesterday: 61 °F (at 6:00 AM)
Average temperature yesterday: 76 °F

Past Weeks' High & Low Weather Summary

 TemperatureHumidityPressure
High91 °F (Jul 30, 3:00 PM)100% (Jul 22, 3:00 AM)30.09 "Hg (Jul 22, 3:00 AM)
Low61 °F (Jul 22, 3:00 AM)27% (Jul 29, 2:00 PM)29.74 "Hg (Jul 21, 4:30 PM)
Average75 °F60%29.91 "Hg
* Reported Jul 15 3:00 PM — Jul 30 3:30 PM, Kryvyi Rih, Weather by CustomWeather, © 2014

Note: Actual official high and low records may vary slightly from our data, if they occured in-between our weather recording intervals... More about our weather records

Advertising

Kryvyi Rih weather history for previous 24 hours

 ConditionsComfort  
Time TempWeatherWind HumidityBarometerVisibility
3:30 PM
Jul 30
91 °FPartly sunny.6 mph41%29.95 "HgN/A
3:00 PM91 °FPartly sunny.1 mph41%29.95 "HgN/A
2:30 PM88 °FPartly sunny.10 mph35%29.95 "HgN/A
2:00 PM88 °FPartly sunny.3 mph35%29.95 "HgN/A
1:30 PM88 °FScattered clouds.8 mph40%29.95 "HgN/A
1:00 PM88 °FScattered clouds.6 mph40%29.98 "HgN/A
12:30 PM88 °FScattered clouds.8 mph38%29.98 "HgN/A
12:00 PM88 °FPassing clouds.8 mph38%29.98 "HgN/A
11:30 AM88 °FPassing clouds.8 mph33%29.98 "HgN/A
11:00 AM88 °FPassing clouds.8 mph33%29.98 "HgN/A
10:30 AM84 °FPassing clouds.8 mph37%29.98 "HgN/A
10:00 AM84 °FPassing clouds.8 mph37%29.98 "HgN/A
9:30 AM77 °FPassing clouds.6 mph57%29.98 "HgN/A
9:00 AM77 °FPassing clouds.3 mph57%29.98 "HgN/A
8:30 AM72 °FPassing clouds.3 mph61%29.98 "HgN/A
8:00 AM72 °FSunny.3 mph61%29.98 "Hg10 mi
7:30 AM68 °FPassing clouds.3 mph64%29.98 "HgN/A
7:00 AM68 °FSunny.6 mph64%29.98 "Hg10 mi
6:30 AM63 °FSunny.8 mph73%29.98 "Hg10 mi
6:00 AM63 °FClear.8 mph73%29.98 "Hg10 mi
5:30 AM64 °FClear.8 mph68%29.98 "Hg10 mi
5:00 AM64 °FClear.10 mph68%29.98 "Hg10 mi
4:30 AM66 °FClear.8 mph64%29.95 "Hg10 mi
4:00 AM66 °FClear.8 mph64%29.98 "Hg10 mi
3:30 AM66 °FClear.8 mph64%29.98 "Hg10 mi
3:00 AM66 °FClear.10 mph64%29.98 "Hg10 mi
2:30 AM66 °FClear.8 mph64%29.98 "Hg10 mi
2:00 AM66 °FClear.6 mph64%29.98 "Hg10 mi
1:30 AM70 °FClear.3 mph60%29.98 "Hg10 mi
1:00 AM70 °FClear.6 mph60%29.95 "Hg10 mi
12:30 AM72 °FClear.6 mph61%29.95 "Hg10 mi
12:00 AM72 °FClear.8 mph61%29.95 "Hg10 mi
11:30 PM
Jul 29
72 °FClear.8 mph61%29.95 "Hg10 mi
11:00 PM72 °FClear.8 mph61%29.95 "Hg10 mi
10:30 PM72 °FClear.8 mph61%29.95 "Hg10 mi
10:00 PM72 °FClear.8 mph61%29.95 "Hg10 mi
9:30 PM77 °FClear.6 mph47%29.95 "Hg10 mi
9:00 PM77 °FSunny.6 mph47%29.95 "Hg10 mi
8:30 PM82 °FPassing clouds.3 mph37%29.95 "HgN/A
8:00 PM82 °FSunny.3 mph37%29.92 "Hg10 mi
7:30 PM88 °FSunny.3 mph29%29.95 "Hg10 mi
7:00 PM88 °FPassing clouds.8 mph29%29.95 "HgN/A
6:30 PM88 °FSunny.8 mph27%29.95 "Hg10 mi
6:00 PM88 °FPassing clouds.13 mph27%29.95 "HgN/A
5:30 PM88 °FSunny.10 mph27%29.95 "Hg10 mi
5:00 PM88 °FPassing clouds.13 mph27%29.95 "HgN/A
Weather by CustomWeather, © 2014

See weather overviewHow to use our weather pages